Location: Rowland
(34.5359°N, 79.2929°W)
Time: 14:35:15
(UTC+00:00)

SR - Pass Details

Date: 05 October 2022
Orbit: 577 x 875 km, 66.7° (Epoch: 28 November)

Event Time Altitude Azimuth Distance (km) Brightness Sun altitude
Rises 10:18:11 0° 339° (NNW) 3,284 ? -12.5°
Reaches altitude 10° 10:20:48 10° 345° (NNW) 2,304 ? -12.0°
Maximum altitude 10:25:50 45° 59° (ENE) 968 ? -10.9°
Drops below altitude 10° 10:30:25 10° 132° (SE) 2,101 ? -10.0°
Sets 10:32:42 0° 139° (SE) 2,965 ? -9.5°
